TimeCST,TemperatureF,Dew PointF,Humidity,Sea Level PressureIn,VisibilityMPH,Wind Direction,Wind SpeedMPH,Gust SpeedMPH,PrecipitationIn,Events,Conditions,WindDirDegrees,DateUTC
12:52 AM,35.1,23.0,61,29.93,10.0,WNW,8.1,-,N/A,,Clear,290,2013-02-14 06:52:00
1:52 AM,30.9,21.0,67,29.94,10.0,West,6.9,-,N/A,,Clear,280,2013-02-14 07:52:00
2:52 AM,34.0,21.9,61,29.95,10.0,NW,11.5,-,N/A,,Clear,310,2013-02-14 08:52:00
3:52 AM,33.1,23.0,66,29.96,10.0,NW,9.2,-,N/A,,Clear,310,2013-02-14 09:52:00
4:52 AM,34.0,23.0,64,29.98,10.0,WNW,10.4,-,N/A,,Clear,300,2013-02-14 10:52:00
5:52 AM,30.0,23.0,75,30.01,10.0,NW,8.1,-,N/A,,Clear,310,2013-02-14 11:52:00
6:52 AM,30.0,24.1,79,30.03,10.0,WNW,6.9,-,N/A,,Clear,300,2013-02-14 12:52:00
7:52 AM,30.9,25.0,79,30.06,10.0,NW,4.6,-,N/A,,Clear,320,2013-02-14 13:52:00
8:52 AM,34.0,27.0,75,30.08,10.0,WNW,5.8,-,N/A,,Clear,290,2013-02-14 14:52:00
9:52 AM,37.9,28.9,70,30.10,10.0,NW,8.1,-,N/A,,Partly Cloudy,310,2013-02-14 15:52:00
10:52 AM,44.1,30.0,58,30.11,10.0,NW,6.9,-,N/A,,Clear,310,2013-02-14 16:52:00
11:52 AM,46.0,28.9,51,30.11,10.0,NNW,10.4,-,N/A,,Scattered Clouds,340,2013-02-14 17:52:00
12:52 PM,46.9,30.0,52,30.11,10.0,NNW,10.4,-,N/A,,Scattered Clouds,330,2013-02-14 18:52:00
1:52 PM,48.9,28.0,44,30.11,10.0,North,9.2,-,N/A,,Partly Cloudy,350,2013-02-14 19:52:00
2:52 PM,48.0,26.1,42,30.11,10.0,North,13.8,-,N/A,,Overcast,350,2013-02-14 20:52:00
3:52 PM,46.9,25.0,42,30.13,10.0,NNW,12.7,-,N/A,,Overcast,330,2013-02-14 21:52:00
4:52 PM,45.0,27.0,49,30.15,10.0,NW,13.8,-,N/A,,Overcast,320,2013-02-14 22:52:00
5:52 PM,44.1,23.0,43,30.17,10.0,NW,6.9,-,N/A,,Partly Cloudy,320,2013-02-14 23:52:00
6:52 PM,37.9,23.0,55,30.19,10.0,WNW,6.9,-,N/A,,Partly Cloudy,300,2013-02-15 00:52:00
7:52 PM,36.0,24.1,62,30.22,10.0,NW,8.1,-,N/A,,Scattered Clouds,310,2013-02-15 01:52:00
8:52 PM,39.9,21.9,49,30.25,10.0,NNW,18.4,24.2,N/A,,Mostly Cloudy,340,2013-02-15 02:52:00
9:52 PM,37.9,18.0,45,30.27,10.0,NNW,15.0,24.2,N/A,,Mostly Cloudy,340,2013-02-15 03:52:00
10:52 PM,35.1,16.0,46,30.28,10.0,North,12.7,24.2,N/A,,Clear,350,2013-02-15 04:52:00
11:52 PM,30.9,16.0,54,30.32,10.0,NNW,17.3,25.3,N/A,,Clear,340,2013-02-15 05:52:00